| time (UTC) | temp F | wind direction | speed knots | gust knots | rain 1hr in | rain 24hr in | rain mn in | humidity % | barometer mb |
| 20260508111304 | 59 | 19 | 0.0 | 4.3 | 0.00 | 0.01 | 0.00 | 80 | 1015.4 |
| 20260508110804 | 59 | 30 | 1.7 | 4.3 | 0.00 | 0.01 | 0.00 | 80 | 1015.3 |
| 20260508103804 | 59 | 11 | 3.5 | 8.7 | 0.00 | 0.01 | 0.00 | 80 | 1014.5 |
| 20260508101804 | 59 | 2 | 1.7 | 4.3 | 0.00 | 0.01 | 0.00 | 81 | 1014.9 |
| 20260508101304 | 59 | 342 | 0.9 | 1.7 | 0.00 | 0.01 | 0.00 | 80 | 1015.3 |
| 20260508100804 | 59 | 342 | 0.9 | 2.6 | 0.00 | 0.01 | 0.00 | 80 | 1015.4 |
| 20260508100304 | 59 | 342 | 0.0 | 4.3 | 0.00 | 0.01 | 0.00 | 80 | 1015.6 |
| 20260508094804 | 59 | 126 | 1.7 | 2.6 | 0.00 | 0.01 | 0.00 | 80 | 1015.5 |
| 20260508093804 | 59 | 126 | 0.0 | 0.0 | 0.00 | 0.01 | 0.00 | 80 | 1015.5 |
| 20260508093304 | 59 | 126 | 0.0 | 1.7 | 0.00 | 0.01 | 0.00 | 80 | 1015.5 |
| 20260508091804 | 60 | 126 | 0.9 | 1.7 | 0.00 | 0.01 | 0.00 | 80 | 1015.3 |
| 20260508091305 | 60 | 126 | 0.0 | 0.9 | 0.00 | 0.01 | 0.00 | 79 | 1015.2 |
| 20260508090803 | 60 | 126 | 0.0 | 0.0 | 0.00 | 0.01 | 0.00 | 79 | 1015.0 |
| 20260508090304 | 60 | 126 | 0.0 | 0.0 | 0.00 | 0.01 | 0.00 | 79 | 1015.1 |
| 20260508084804 | 60 | 126 | 0.0 | 0.9 | 0.00 | 0.01 | 0.00 | 78 | 1015.2 |
| 20260508083804 | 60 | 126 | 0.0 | 0.9 | 0.00 | 0.01 | 0.00 | 77 | 1015.0 |
| 20260508083304 | 60 | 126 | 0.0 | 0.0 | 0.00 | 0.01 | 0.00 | 77 | 1015.1 |
| 20260508081805 | 60 | 126 | 0.0 | 0.0 | 0.00 | 0.01 | 0.00 | 77 | 1015.2 |
| 20260508081304 | 60 | 126 | 0.0 | 0.0 | 0.00 | 0.01 | 0.00 | 76 | 1015.2 |
| 20260508080804 | 60 | 126 | 0.0 | 0.0 | 0.00 | 0.01 | 0.00 | 76 | 1015.3 |
| 20260508074804 | 60 | 134 | 1.7 | 4.3 | 0.00 | 0.01 | 0.00 | 77 | 1015.0 |
| 20260508074305 | 60 | 135 | 1.7 | 4.3 | 0.00 | 0.01 | 0.00 | 77 | 1015.0 |
| 20260508073805 | 59 | 5 | 0.9 | 2.6 | 0.00 | 0.01 | 0.00 | 77 | 1014.9 |
| 20260508071805 | 59 | 1 | 0.9 | 7.8 | 0.00 | 0.01 | 0.00 | 79 | 1015.0 |
| 20260508071305 | 59 | 355 | 0.0 | 1.7 | 0.00 | 0.01 | 0.00 | 79 | 1015.1 |
| 20260508070805 | 59 | 355 | 1.7 | 4.3 | 0.00 | 0.01 | 0.00 | 79 | 1014.9 |
| 20260508070305 | 59 | 355 | 1.7 | 2.6 | 0.00 | 0.01 | 0.00 | 79 | 1015.0 |
| 20260508064805 | 59 | 323 | 0.0 | 0.0 | 0.00 | 0.01 | 0.00 | 79 | 1015.6 |
| 20260508064305 | 59 | 323 | 0.0 | 0.9 | 0.00 | 0.01 | 0.00 | 79 | 1015.7 |
| 20260508063805 | 58 | 323 | 0.9 | 1.7 | 0.00 | 0.01 | 0.00 | 79 | 1015.6 |
| 20260508063305 | 58 | 323 | 0.0 | 0.0 | 0.00 | 0.01 | 0.00 | 79 | 1015.7 |
| 20260508061805 | 58 | 323 | 0.9 | 1.7 | 0.00 | 0.01 | 0.00 | 79 | 1015.8 |
| 20260508061305 | 58 | 323 | 0.0 | 0.0 | 0.00 | 0.01 | 0.00 | 79 | 1016.1 |
| 20260508060806 | 58 | 323 | 0.0 | 1.7 | 0.00 | 0.01 | 0.00 | 79 | 1016.3 |
| 20260508060306 | 58 | 323 | 0.0 | 0.9 | 0.00 | 0.01 | 0.00 | 79 | 1016.2 |
| 20260508054805 | 58 | 323 | 0.0 | 0.9 | 0.00 | 0.01 | 0.00 | 79 | 1015.8 |
| 20260508054305 | 58 | 323 | 0.9 | 2.6 | 0.00 | 0.01 | 0.00 | 79 | 1015.6 |
| 20260508053805 | 59 | 323 | 0.0 | 0.0 | 0.00 | 0.01 | 0.00 | 79 | 1015.6 |
| 20260508053305 | 59 | 323 | 0.0 | 0.0 | 0.00 | 0.01 | 0.00 | 79 | 1015.9 |
| 20260508051805 | 59 | 323 | 0.0 | 0.9 | 0.00 | 0.01 | 0.00 | 79 | 1016.1 |
| 20260508051305 | 59 | 323 | 0.9 | 1.7 | 0.00 | 0.01 | 0.00 | 78 | 1016.1 |
| 20260508050806 | 59 | 323 | 1.7 | 2.6 | 0.00 | 0.01 | 0.00 | 78 | 1016.1 |
| 20260508050306 | 59 | 323 | 0.0 | 1.7 | 0.00 | 0.01 | 0.00 | 79 | 1015.9 |
| 20260508044805 | 59 | 323 | 0.9 | 1.7 | 0.00 | 0.01 | 0.01 | 79 | 1015.6 |
| 20260508044305 | 59 | 323 | 1.7 | 2.6 | 0.00 | 0.01 | 0.01 | 79 | 1015.9 |
| 20260508043805 | 59 | 322 | 0.0 | 0.9 | 0.00 | 0.01 | 0.01 | 78 | 1016.3 |
| 20260508043306 | 59 | 322 | 0.0 | 4.3 | 0.00 | 0.01 | 0.01 | 78 | 1016.4 |
| 20260508041805 | 59 | 37 | 0.0 | 1.7 | 0.00 | 0.01 | 0.01 | 78 | 1015.8 |
| 20260508041305 | 58 | 37 | 0.0 | 1.7 | 0.00 | 0.01 | 0.01 | 79 | 1015.5 |
| 20260508040805 | 58 | 37 | 2.6 | 4.3 | 0.00 | 0.01 | 0.01 | 79 | 1015.5 |
| 20260508040305 | 58 | 15 | 0.9 | 2.6 | 0.00 | 0.01 | 0.01 | 79 | 1016.1 |
| 20260508034805 | 59 | 14 | 0.9 | 1.7 | 0.00 | 0.01 | 0.01 | 77 | 1016.4 |
| 20260508034305 | 59 | 14 | 0.0 | 0.9 | 0.00 | 0.01 | 0.01 | 77 | 1016.3 |
| 20260508033805 | 59 | 14 | 0.9 | 1.7 | 0.00 | 0.01 | 0.01 | 76 | 1016.5 |
| 20260508031305 | 60 | 14 | 0.0 | 0.0 | 0.00 | 0.01 | 0.01 | 74 | 1017.1 |
| 20260508030805 | 60 | 14 | 0.9 | 1.7 | 0.00 | 0.01 | 0.01 | 74 | 1017.3 |
| 20260508030305 | 60 | 14 | 0.0 | 1.7 | 0.00 | 0.01 | 0.01 | 74 | 1017.1 |
| 20260508024805 | 61 | 15 | 0.0 | 0.0 | 0.00 | 0.01 | 0.01 | 72 | 1016.0 |
| 20260508024305 | 61 | 15 | 0.0 | 0.9 | 0.00 | 0.01 | 0.01 | 72 | 1015.8 |
| 20260508023805 | 61 | 15 | 0.9 | 1.7 | 0.00 | 0.01 | 0.01 | 71 | 1015.8 |
| 20260508023305 | 61 | 15 | 0.0 | 2.6 | 0.00 | 0.01 | 0.01 | 71 | 1015.6 |
| 20260508021805 | 62 | 28 | 0.0 | 0.0 | 0.00 | 0.01 | 0.01 | 70 | 1015.2 |
| 20260508021305 | 62 | 28 | 0.0 | 2.6 | 0.00 | 0.01 | 0.01 | 69 | 1014.8 |
| 20260508020805 | 62 | 26 | 0.9 | 5.2 | 0.00 | 0.01 | 0.01 | 69 | 1014.5 |
| 20260508014306 | 62 | 49 | 1.7 | 7.0 | 0.00 | 0.01 | 0.01 | 68 | 1014.6 |
| 20260508013805 | 62 | 66 | 0.9 | 4.3 | 0.00 | 0.01 | 0.01 | 68 | 1014.6 |
| 20260508013305 | 62 | 140 | 0.9 | 4.3 | 0.00 | 0.01 | 0.01 | 68 | 1014.8 |
| 20260508011305 | 63 | 115 | 5.2 | 11.3 | 0.00 | 0.01 | 0.01 | 65 | 1014.3 |
| 20260508010805 | 63 | 98 | 0.9 | 2.6 | 0.00 | 0.01 | 0.01 | 65 | 1014.5 |
| 20260508004805 | 64 | 113 | 2.6 | 7.0 | 0.00 | 0.01 | 0.01 | 63 | 1015.1 |
| 20260508004305 | 64 | 43 | 4.3 | 10.4 | 0.00 | 0.01 | 0.01 | 63 | 1015.2 |
| 20260508003805 | 64 | 24 | 2.6 | 8.7 | 0.00 | 0.01 | 0.01 | 64 | 1015.4 |
| 20260508001305 | 65 | 127 | 2.6 | 8.7 | 0.00 | 0.01 | 0.01 | 62 | 1015.3 |
| 20260508000305 | 66 | 63 | 0.9 | 5.2 | 0.00 | 0.01 | 0.01 | 62 | 1015.4 |
| 20260507234805 | 66 | 36 | 2.6 | 4.3 | 0.00 | 0.01 | 0.01 | 62 | 1015.9 |
| 20260507234305 | 67 | 36 | 0.9 | 1.7 | 0.00 | 0.01 | 0.01 | 62 | 1016.2 |
| 20260507233805 | 66 | 35 | 1.7 | 2.6 | 0.00 | 0.01 | 0.01 | 60 | 1016.5 |
| 20260507233305 | 66 | 38 | 2.6 | 5.2 | 0.00 | 0.01 | 0.01 | 60 | 1016.4 |
| 20260507231805 | 67 | 86 | 0.9 | 2.6 | 0.00 | 0.01 | 0.01 | 61 | 1016.2 |
| 20260507231305 | 67 | 87 | 0.9 | 2.6 | 0.00 | 0.01 | 0.01 | 59 | 1016.4 |
| 20260507230805 | 67 | 85 | 0.9 | 2.6 | 0.00 | 0.01 | 0.01 | 61 | 1016.4 |
| 20260507230306 | 67 | 44 | 1.7 | 7.8 | 0.00 | 0.01 | 0.01 | 61 | 1016.0 |
| 20260507224305 | 67 | 342 | 2.6 | 5.2 | 0.00 | 0.01 | 0.01 | 61 | 1016.5 |
| 20260507223805 | 67 | 1 | 4.3 | 11.3 | 0.00 | 0.01 | 0.01 | 61 | 1016.3 |
| 20260507221305 | 66 | 357 | 6.1 | 12.2 | 0.00 | 0.01 | 0.01 | 61 | 1016.8 |
| 20260507220805 | 66 | 349 | 4.3 | 8.7 | 0.00 | 0.01 | 0.01 | 61 | 1016.7 |
| 20260507220305 | 67 | 8 | 3.5 | 13.0 | 0.00 | 0.01 | 0.01 | 61 | 1016.8 |
| 20260507214305 | 67 | 3 | 2.6 | 7.0 | 0.00 | 0.01 | 0.01 | 61 | 1017.0 |
| 20260507213805 | 67 | 33 | 3.5 | 8.7 | 0.00 | 0.01 | 0.01 | 60 | 1017.2 |
| 20260507213305 | 67 | 338 | 2.6 | 10.4 | 0.00 | 0.01 | 0.01 | 60 | 1017.3 |
| 20260507211805 | 68 | 5 | 2.6 | 10.4 | 0.00 | 0.01 | 0.01 | 61 | 1017.5 |
| 20260507211305 | 67 | 344 | 2.6 | 5.2 | 0.00 | 0.01 | 0.01 | 63 | 1017.5 |
| 20260507210805 | 66 | 327 | 6.1 | 8.7 | 0.00 | 0.01 | 0.01 | 62 | 1017.1 |
| 20260507210305 | 66 | 31 | 4.3 | 11.3 | 0.00 | 0.01 | 0.01 | 63 | 1017.1 |
| 20260507204805 | 66 | 36 | 2.6 | 7.0 | 0.00 | 0.01 | 0.01 | 62 | 1017.3 |
| 20260507204305 | 66 | 7 | 1.7 | 5.2 | 0.00 | 0.01 | 0.01 | 63 | 1017.4 |
| 20260507203805 | 66 | 43 | 0.9 | 2.6 | 0.00 | 0.01 | 0.01 | 63 | 1017.3 |
| 20260507203305 | 66 | 49 | 2.6 | 5.2 | 0.00 | 0.01 | 0.01 | 63 | 1017.3 |
| 20260507200805 | 66 | 319 | 6.1 | 12.2 | 0.00 | 0.01 | 0.01 | 63 | 1017.7 |
| 20260507200305 | 66 | 342 | 6.1 | 11.3 | 0.00 | 0.01 | 0.01 | 62 | 1017.7 |
| 20260507194805 | 65 | 41 | 3.5 | 8.7 | 0.00 | 0.01 | 0.01 | 62 | 1018.0 |
| 20260507193805 | 66 | 50 | 3.5 | 10.4 | 0.00 | 0.01 | 0.01 | 63 | 1018.0 |
| 20260507193305 | 65 | 346 | 3.5 | 10.4 | 0.00 | 0.01 | 0.01 | 63 | 1018.4 |
| 20260507191805 | 65 | 343 | 2.6 | 7.0 | 0.00 | 0.01 | 0.01 | 65 | 1018.6 |
| 20260507190805 | 64 | 357 | 4.3 | 10.4 | 0.00 | 0.01 | 0.01 | 66 | 1018.6 |
| 20260507184305 | 63 | 63 | 5.2 | 12.2 | 0.00 | 0.01 | 0.01 | 66 | 1018.4 |
| 20260507183805 | 63 | 63 | 6.1 | 12.2 | 0.00 | 0.01 | 0.01 | 67 | 1017.6 |
| 20260507183305 | 63 | 67 | 5.2 | 12.2 | 0.00 | 0.01 | 0.01 | 66 | 1018.0 |
| 20260507181805 | 63 | 38 | 2.6 | 8.7 | 0.00 | 0.01 | 0.01 | 68 | 1017.9 |
| 20260507181305 | 63 | 355 | 4.3 | 12.2 | 0.00 | 0.01 | 0.01 | 68 | 1018.1 |
| 20260507180805 | 63 | 0 | 2.6 | 8.7 | 0.00 | 0.01 | 0.01 | 69 | 1018.4 |
| 20260507180305 | 63 | 30 | 2.6 | 11.3 | 0.00 | 0.01 | 0.01 | 69 | 1018.4 |
| 20260507174305 | 64 | 58 | 4.3 | 10.4 | 0.00 | 0.01 | 0.01 | 70 | 1018.6 |
| 20260507173805 | 63 | 14 | 6.1 | 11.3 | 0.00 | 0.01 | 0.01 | 70 | 1019.1 |
| 20260507173305 | 63 | 358 | 4.3 | 12.2 | 0.00 | 0.01 | 0.01 | 72 | 1018.9 |
| 20260507171805 | 61 | 61 | 6.1 | 12.2 | 0.01 | 0.01 | 0.01 | 79 | 1019.1 |
| 20260507171305 | 60 | 9 | 6.1 | 11.3 | 0.01 | 0.01 | 0.01 | 80 | 1018.9 |
| 20260507170805 | 59 | 37 | 4.3 | 13.0 | 0.01 | 0.01 | 0.01 | 81 | 1018.3 |
| 20260507170305 | 58 | 55 | 5.2 | 11.3 | 0.01 | 0.01 | 0.01 | 82 | 1018.1 |
| 20260507164805 | 58 | 82 | 2.6 | 8.7 | 0.01 | 0.01 | 0.01 | 83 | 1017.9 |
| 20260507164305 | 57 | 36 | 7.8 | 15.6 | 0.01 | 0.01 | 0.01 | 82 | 1018.0 |
| 20260507163804 | 57 | 23 | 1.7 | 11.3 | 0.01 | 0.01 | 0.01 | 82 | 1018.8 |
| 20260507163305 | 57 | 331 | 6.1 | 13.0 | 0.01 | 0.01 | 0.01 | 82 | 1019.4 |
| 20260507161805 | 58 | 30 | 2.6 | 5.2 | 0.00 | 0.01 | 0.00 | 81 | 1019.3 |
| 20260507161306 | 58 | 0 | 3.5 | 8.7 | 0.00 | 0.04 | 0.00 | 81 | 1019.9 |
| 20260507160804 | 58 | 333 | 4.3 | 8.7 | 0.00 | 0.22 | 0.00 | 81 | 1020.7 |
| 20260507160305 | 57 | 30 | 0.9 | 7.0 | 0.00 | 0.35 | 0.00 | 81 | 1020.6 |
| 20260507154805 | 57 | 299 | 3.5 | 10.4 | 0.00 | 0.35 | 0.00 | 82 | 1019.8 |
| 20260507154305 | 57 | 12 | 4.3 | 11.3 | 0.00 | 0.35 | 0.00 | 82 | 1019.0 |
| 20260507153805 | 57 | 328 | 6.1 | 12.2 | 0.00 | 0.35 | 0.00 | 82 | 1019.2 |
| 20260507151305 | 57 | 335 | 2.6 | 7.0 | 0.00 | 0.35 | 0.00 | 82 | 1019.7 |
| 20260507150805 | 57 | 333 | 2.6 | 5.2 | 0.00 | 0.35 | 0.00 | 82 | 1020.2 |
| 20260507150305 | 57 | 355 | 2.6 | 8.7 | 0.00 | 0.35 | 0.00 | 82 | 1019.9 |
| 20260507144805 | 57 | 343 | 2.6 | 5.2 | 0.00 | 0.35 | 0.00 | 82 | 1019.9 |
| 20260507143805 | 56 | 336 | 2.6 | 4.3 | 0.00 | 0.35 | 0.00 | 82 | 1020.1 |
| 20260507143305 | 56 | 325 | 1.7 | 13.9 | 0.00 | 0.35 | 0.00 | 83 | 1019.8 |
| 20260507141805 | 56 | 349 | 7.0 | 13.9 | 0.00 | 0.35 | 0.00 | 83 | 1019.7 |
| 20260507141305 | 56 | 356 | 6.1 | 13.0 | 0.00 | 0.35 | 0.00 | 83 | 1019.6 |
| 20260507140805 | 56 | 343 | 5.2 | 10.4 | 0.00 | 0.35 | 0.00 | 83 | 1019.4 |
| 20260507134805 | 56 | 357 | 5.2 | 12.2 | 0.00 | 0.35 | 0.00 | 83 | 1019.3 |
| 20260507134305 | 56 | 4 | 6.1 | 12.2 | 0.00 | 0.35 | 0.00 | 83 | 1018.9 |
| 20260507133805 | 56 | 348 | 7.8 | 13.9 | 0.00 | 0.35 | 0.00 | 83 | 1018.9 |
| 20260507133305 | 56 | 3 | 7.8 | 13.9 | 0.00 | 0.35 | 0.00 | 83 | 1019.0 |
| 20260507131804 | 56 | 36 | 5.2 | 12.2 | 0.00 | 0.35 | 0.00 | 83 | 1018.6 |
| 20260507131305 | 56 | 346 | 3.5 | 10.4 | 0.00 | 0.35 | 0.00 | 83 | 1018.8 |
| 20260507130805 | 56 | 34 | 2.6 | 13.9 | 0.00 | 0.35 | 0.00 | 83 | 1018.7 |
| 20260507124305 | 56 | 0 | 6.1 | 11.3 | 0.00 | 0.35 | 0.00 | 83 | 1018.5 |
| 20260507123805 | 56 | 338 | 4.3 | 13.0 | 0.00 | 0.35 | 0.00 | 83 | 1018.6 |
| 20260507123305 | 56 | 347 | 6.1 | 13.0 | 0.00 | 0.35 | 0.00 | 83 | 1018.6 |
| 20260507121805 | 56 | 10 | 7.8 | 13.0 | 0.00 | 0.35 | 0.00 | 82 | 1018.5 |
| 20260507121305 | 56 | 344 | 5.2 | 13.9 | 0.00 | 0.35 | 0.00 | 82 | 1018.6 |
| 20260507120805 | 56 | 344 | 3.5 | 5.2 | 0.00 | 0.35 | 0.00 | 82 | 1018.5 |
| 20260507120304 | 56 | 8 | 5.2 | 14.8 | 0.00 | 0.35 | 0.00 | 82 | 1018.2 |
| 20260507114305 | 56 | 316 | 2.6 | 11.3 | 0.00 | 0.35 | 0.00 | 82 | 1017.6 |
| 20260507113305 | 57 | 346 | 5.2 | 13.0 | 0.00 | 0.35 | 0.00 | 82 | 1017.6 |
| 20260507111805 | 57 | 350 | 5.2 | 11.3 | 0.00 | 0.35 | 0.00 | 82 | 1017.6 |